SCP
0 0 0 0 0 -0 -0 0 0 0 -0 -0 -0 0 0 0 0 0 0 0 0 0
0 0 0 0 0 0 0 0 0 0 -0 -0 0 0 0 0 0 0 0 0 0 0
0 0 0 0 0 0 0 0 0 0 0 0 0 0 0 0 0 0 0 0 0 0
0 0 0 0 0 0 0 0 -0 -0 0 0 0 0 0 0 0 0 0 0 0 0
0 0 0 0 0 0 0 0 0 -0 -0 0 -0 -0 0 0 0 0 0 0 0 0
0 0 0 0 0 0 0 0 0 0 -0 -0 -0 -0 -0 -0 0 0 0 0 0 0
0 0 0 0 0 0 0 0 0 0 0 0 0 -0 -0 -0 -0 -0 0 0 0 0
0 0 0 0 0 0 0 0 0 0 0 0 0 0 0 0 -0 -0 -0 0 0 0
0 0 0 0 0 0 0 0 0 0 0 0 0 0 0 0 0 0 0 0 0 0
0 0 0 0 0 0 0 0 0 0 0 0 0 0 0 -0 0 0 0 0 0 0
0 0 0 0 -0 -0 0 0 0 0 0 0 0 0 -0 -0 0 0 0 0 0 0
0 0 0 0 0 0 0 0 0 0 0 0 0 0 0 0 0 0 0 0 0 0
0 0 0 0 0 0 0 0 0 0 0 0 0 0 0 0 0 0 0 0 0 0
0 0 0 0 0 0 0 0 0 0 0 0 0 0 0 0 0 0 0 0 0 0
Wind_Speed_500mb
9 19 21 24 27 26 21 16 10 11 17 22 26 28 35 44 45 45 50 48 47 47
9 17 21 21 25 26 23 17 10 5 13 21 24 25 29 36 36 41 44 46 39 36
4 11 18 20 22 23 23 19 13 5 5 12 17 22 24 28 30 34 36 39 41 38
4 11 14 17 21 21 22 19 17 11 2 6 12 16 20 23 24 26 30 32 38 41
4 7 12 14 16 18 21 20 17 17 11 6 7 8 10 12 15 18 21 27 33 37
1 5 9 13 13 14 19 24 21 18 22 21 18 14 13 9 6 3 7 6 10 29
2 4 8 9 9 10 16 20 23 24 22 23 23 19 16 12 8 5 4 5 4 3
5 2 7 10 7 7 10 15 19 20 23 24 26 26 25 25 21 14 7 8 9 7
9 2 7 10 6 5 6 11 14 17 17 18 22 18 16 15 14 14 16 17 17 16
19 9 3 5 4 2 5 9 10 14 16 16 19 19 14 14 13 15 19 19 19 20
24 16 6 2 2 3 5 6 5 7 11 13 19 21 21 18 16 15 16 18 21 19
32 24 14 10 10 10 6 5 1 4 9 12 17 16 17 18 14 10 13 16 20 19
40 31 20 19 17 14 13 9 5 6 12 15 14 13 10 8 10 8 10 12 15 15
43 39 30 26 22 17 16 12 8 7 14 14 11 8 6 6 6 8 9 13 13 11
Wind_Direction_500mb
16 25 25 24 16 6 351 331 317 268 232 220 218 225 229 228 232 230 227 231 233 237
47 33 29 25 18 10 6 353 339 279 232 226 226 228 226 223 231 228 226 233 240 242
54 8 5 9 12 11 12 12 7 331 235 226 223 217 216 222 225 223 228 235 235 238
76 4 357 359 5 11 19 17 22 18 8 207 219 214 215 218 221 224 232 235 236 239
337 10 4 2 14 21 23 25 26 35 45 113 162 170 177 202 216 228 242 243 242 239
132 1 7 8 21 30 38 36 41 62 68 75 94 110 120 123 147 175 174 200 258 247
162 350 4 15 14 39 47 46 51 57 69 78 80 82 87 92 97 101 104 113 144 202
133 100 8 359 24 51 57 57 60 65 73 83 83 74 71 76 78 78 91 141 146 143
170 164 23 17 48 66 74 72 78 73 69 75 82 74 74 80 80 90 89 88 92 98
195 195 57 39 68 99 99 90 72 70 76 80 87 73 74 78 79 85 103 108 107 109
207 208 212 167 245 184 141 107 84 84 91 92 92 75 67 63 71 87 98 100 99 98
224 207 214 228 242 229 192 157 154 138 130 116 109 94 71 52 59 84 103 106 103 94
219 211 215 220 224 232 205 205 229 178 160 139 128 126 114 71 51 77 108 121 123 107
214 216 216 218 218 219 200 197 218 205 172 163 164 169 155 98 70 95 131 135 126 119
Wind_Speed_850mb
9 19 21 24 27 26 21 16 10 11 17 22 26 28 35 44 45 45 50 48 47 47
9 17 21 21 25 26 23 17 10 5 13 21 24 25 29 36 36 41 44 46 39 36
4 11 18 20 22 23 23 19 13 5 5 12 17 22 24 28 30 34 36 39 41 38
4 11 14 17 21 21 22 19 17 11 2 6 12 16 20 23 24 26 30 32 38 41
4 7 12 14 16 18 21 20 17 17 11 6 7 8 10 12 15 18 21 27 33 37
1 5 9 13 13 14 19 24 21 18 22 21 18 14 13 9 6 3 7 6 10 29
2 4 8 9 9 10 16 20 23 24 22 23 23 19 16 12 8 5 4 5 4 3
5 2 7 10 7 7 10 15 19 20 23 24 26 26 25 25 21 14 7 8 9 7
9 2 7 10 6 5 6 11 14 17 17 18 22 18 16 15 14 14 16 17 17 16
19 9 3 5 4 2 5 9 10 14 16 16 19 19 14 14 13 15 19 19 19 20
24 16 6 2 2 3 5 6 5 7 11 13 19 21 21 18 16 15 16 18 21 19
32 24 14 10 10 10 6 5 1 4 9 12 17 16 17 18 14 10 13 16 20 19
40 31 20 19 17 14 13 9 5 6 12 15 14 13 10 8 10 8 10 12 15 15
43 39 30 26 22 17 16 12 8 7 14 14 11 8 6 6 6 8 9 13 13 11
Wind_Direction_850mb
16 25 25 24 16 6 351 331 317 268 232 220 218 225 229 228 232 230 227 231 233 237
47 33 29 25 18 10 6 353 339 279 232 226 226 228 226 223 231 228 226 233 240 242
54 8 5 9 12 11 12 12 7 331 235 226 223 217 216 222 225 223 228 235 235 238
76 4 357 359 5 11 19 17 22 18 8 207 219 214 215 218 221 224 232 235 236 239
337 10 4 2 14 21 23 25 26 35 45 113 162 170 177 202 216 228 242 243 242 239
132 1 7 8 21 30 38 36 41 62 68 75 94 110 120 123 147 175 174 200 258 247
162 350 4 15 14 39 47 46 51 57 69 78 80 82 87 92 97 101 104 113 144 202
133 100 8 359 24 51 57 57 60 65 73 83 83 74 71 76 78 78 91 141 146 143
170 164 23 17 48 66 74 72 78 73 69 75 82 74 74 80 80 90 89 88 92 98
195 195 57 39 68 99 99 90 72 70 76 80 87 73 74 78 79 85 103 108 107 109
207 208 212 167 245 184 141 107 84 84 91 92 92 75 67 63 71 87 98 100 99 98
224 207 214 228 242 229 192 157 154 138 130 116 109 94 71 52 59 84 103 106 103 94
219 211 215 220 224 232 205 205 229 178 160 139 128 126 114 71 51 77 108 121 123 107
214 216 216 218 218 219 200 197 218 205 172 163 164 169 155 98 70 95 131 135 126 119